W5XN Weather Reports


time (UTC)temp
F
wind
direction
speed
knots
gust
knots
rain 1hr
in
rain 24hr
in
rain mn
in
humidity
%
barometer
mb
20260504151010 70 214 3.5 4.3 0.00 0.00 0.00 55 1016.4
20260504150508 70 179 2.6 2.6 0.00 0.00 0.00 58 1016.5
20260504140933 64 141 1.7 1.7 0.00 0.00 0.00 76 1016.4
20260504140430 63 169 2.6 2.6 0.00 0.00 0.00 79 1016.3
20260504130354 53 99 0.0 0.0 0.00 0.00 0.00 98 1016.5
20260504120317 45 99 0.0 0.0 0.00 0.00 0.00 98 1016.4
20260504110242 44 99 0.0 0.0 0.00 0.00 0.00 98 1015.7
20260504100205 44 99 0.0 0.0 0.00 0.00 0.00 98 1015.7
20260504090133 45 99 0.0 0.0 0.00 0.00 0.00 98 1015.7
20260504081604 46 99 0.0 0.0 0.00 0.00 0.00 97 1015.7
20260504081059 46 99 0.0 0.0 0.00 0.00 0.00 97 1016.1
20260504080556 46 99 0.0 0.0 0.00 0.00 0.00 97 1015.8
20260504050409 49 99 0.0 0.0 0.00 0.00 0.00 96 1017.3
20260504045906 49 99 0.0 0.0 0.00 0.00 0.00 96 1017.4
20260504045401 49 99 0.0 0.0 0.00 0.00 0.00 96 1017.1
20260504044858 49 99 0.0 0.0 0.00 0.00 0.00 96 1017.3
20260504044356 49 99 0.0 0.0 0.00 0.00 0.00 96 1017.4
20260504043853 49 99 0.0 0.0 0.00 0.00 0.00 96 1017.5
20260504043350 49 99 0.0 0.0 0.00 0.00 0.00 96 1017.5
20260504042847 49 99 0.0 0.0 0.00 0.00 0.00 96 1017.3
20260504042343 49 99 0.0 0.0 0.00 0.00 0.00 96 1017.3
20260504041840 49 99 0.0 0.0 0.00 0.00 0.00 96 1017.5
20260504041336 50 99 0.0 0.0 0.00 0.00 0.00 96 1017.3
20260504040832 50 99 0.0 0.0 0.00 0.00 0.00 96 1017.7
20260504040330 50 99 0.0 0.0 0.00 0.00 0.00 96 1017.6
20260504035826 50 99 0.0 0.0 0.00 0.00 0.00 96 1017.3
20260504035324 50 99 0.0 0.0 0.00 0.00 0.00 96 1017.3
20260504034820 50 99 0.0 0.0 0.00 0.00 0.00 96 1017.6
20260504034318 50 99 0.0 0.0 0.00 0.00 0.00 96 1017.4
20260504033815 50 99 0.0 0.0 0.00 0.00 0.00 95 1017.4
20260504033313 50 99 0.0 0.0 0.00 0.00 0.00 95 1017.4
20260504032809 51 99 0.0 0.0 0.00 0.00 0.00 95 1017.4
20260504032306 50 99 0.0 0.0 0.00 0.00 0.00 95 1017.6
20260504031803 51 99 0.0 0.0 0.00 0.00 0.00 95 1017.5
20260504031300 51 99 0.0 0.0 0.00 0.00 0.00 95 1017.5
20260504030756 51 99 0.0 0.0 0.00 0.00 0.00 95 1017.5
20260504030254 51 99 0.0 0.0 0.00 0.00 0.00 95 1017.4
20260504025750 51 99 0.0 0.0 0.00 0.00 0.00 95 1017.3
20260504025247 51 99 0.0 0.0 0.00 0.00 0.00 95 1017.2
20260504024744 51 99 0.0 0.0 0.00 0.00 0.00 94 1017.4
20260504024240 52 99 0.0 0.0 0.00 0.00 0.00 94 1017.4
20260504023737 52 99 0.0 0.0 0.00 0.00 0.00 94 1017.3
20260504023233 52 99 0.0 0.0 0.00 0.00 0.00 93 1017.3
20260504022729 52 107 0.0 0.0 0.00 0.00 0.00 93 1017.1
20260504022226 53 206 0.0 0.0 0.00 0.00 0.00 93 1017.5
20260504021723 53 206 0.0 0.0 0.00 0.00 0.00 93 1017.3
20260504021220 53 206 0.0 0.0 0.00 0.00 0.00 92 1017.1
20260504020717 53 206 0.0 0.0 0.00 0.00 0.00 92 1016.8
20260504020214 53 206 0.0 0.0 0.00 0.00 0.00 92 1016.8
20260504015710 54 206 0.0 0.0 0.00 0.00 0.00 91 1016.7
20260504015206 54 206 0.0 0.0 0.00 0.00 0.00 91 1017.0
20260504014702 54 206 0.0 0.0 0.00 0.00 0.00 90 1016.6
20260504014159 55 206 0.0 0.0 0.00 0.00 0.00 90 1016.8
20260504013657 55 206 0.0 0.0 0.00 0.00 0.00 90 1016.9
20260504013154 55 206 0.0 0.0 0.00 0.00 0.00 89 1016.6
20260504012650 55 206 0.0 0.0 0.00 0.00 0.00 89 1016.6
20260504012149 56 206 0.0 0.0 0.00 0.00 0.00 88 1016.5
20260504011645 56 206 0.0 0.0 0.00 0.00 0.00 88 1016.5
20260504011142 57 206 0.0 0.0 0.00 0.00 0.00 88 1016.6
20260504010637 57 206 0.0 0.0 0.00 0.00 0.00 87 1016.3
20260504010134 58 206 0.0 0.0 0.00 0.00 0.00 85 1016.5
20260504005631 58 206 0.0 0.0 0.00 0.00 0.00 86 1016.3
20260504005127 59 206 0.0 0.0 0.00 0.00 0.00 85 1016.3
20260504004626 59 206 0.0 0.0 0.00 0.00 0.00 85 1016.2
20260504004123 60 206 0.0 0.0 0.00 0.00 0.00 84 1015.9
20260504003619 61 206 0.0 0.0 0.00 0.00 0.00 84 1016.1
20260504003115 62 206 0.0 0.0 0.00 0.00 0.00 83 1016.1
20260504002612 62 206 0.0 0.0 0.00 0.00 0.00 82 1015.8
20260504002110 63 206 0.0 0.0 0.00 0.00 0.00 80 1015.8
20260504001608 64 206 0.0 0.0 0.00 0.00 0.00 78 1015.7
20260504001103 64 206 0.0 0.0 0.00 0.00 0.00 75 1015.7
20260504000600 65 206 0.0 0.0 0.00 0.00 0.00 71 1016.1
20260504000058 66 206 0.0 0.0 0.00 0.00 0.00 64 1016.1
20260503235556 67 206 0.0 0.0 0.00 0.00 0.00 64 1016.1
20260503235053 68 206 0.0 0.0 0.00 0.00 0.00 62 1015.9
20260503234550 70 206 0.0 0.0 0.00 0.00 0.00 63 1016.3
20260503234048 71 206 0.0 0.0 0.00 0.00 0.00 51 1016.3
20260503233544 71 189 4.3 6.1 0.00 0.00 0.00 44 1016.2
20260503233041 71 161 1.7 2.6 0.00 0.00 0.00 47 1016.3
20260503232538 71 170 0.9 1.7 0.00 0.00 0.00 53 1016.4
20260503232035 72 172 0.0 0.0 0.00 0.00 0.00 47 1016.5
20260503231533 72 178 1.7 2.6 0.00 0.00 0.00 44 1016.2
20260503231029 72 230 5.2 7.8 0.00 0.00 0.00 43 1016.2
20260503230526 72 189 2.6 2.6 0.00 0.00 0.00 43 1016.4
20260503230024 72 212 0.0 1.7 0.00 0.00 0.00 44 1016.5
20260503225520 72 167 2.6 4.3 0.00 0.00 0.00 44 1016.4
20260503225015 73 91 0.9 1.7 0.00 0.00 0.00 41 1016.3
20260503224514 73 213 1.7 1.7 0.00 0.00 0.00 45 1016.2
20260503224011 73 158 3.5 4.3 0.00 0.00 0.00 42 1016.4
20260503223509 73 209 2.6 4.3 0.00 0.00 0.00 43 1016.4
20260503223004 73 189 3.5 4.3 0.00 0.00 0.00 42 1016.3
20260503222502 74 211 4.3 4.3 0.00 0.00 0.00 39 1016.4
20260503222000 74 196 0.0 1.7 0.00 0.00 0.00 43 1016.3
20260503221458 75 54 2.6 2.6 0.00 0.00 0.00 40 1016.5
20260503220955 75 288 3.5 4.3 0.00 0.00 0.00 42 1016.4
20260503220451 74 34 1.7 1.7 0.00 0.00 0.00 42 1016.5
20260503215948 75 224 2.6 4.3 0.00 0.00 0.00 40 1016.5
20260503215445 75 227 7.8 8.7 0.00 0.00 0.00 40 1016.6
20260503214943 75 173 6.1 7.8 0.00 0.00 0.00 39 1016.6
20260503214440 75 229 0.9 1.7 0.00 0.00 0.00 38 1016.7
20260503213937 76 210 5.2 6.1 0.00 0.00 0.00 40 1017.0
20260503213436 75 170 0.0 0.0 0.00 0.00 0.00 40 1016.9
20260503212932 75 199 0.9 1.7 0.00 0.00 0.00 38 1017.1
20260503212429 75 223 4.3 4.3 0.00 0.00 0.00 40 1016.9
20260503211927 75 215 3.5 4.3 0.00 0.00 0.00 42 1017.2
20260503211423 75 202 8.7 12.2 0.00 0.00 0.00 39 1017.1
20260503210919 75 174 3.5 4.3 0.00 0.00 0.00 41 1017.4
20260503210416 75 164 3.5 4.3 0.00 0.00 0.00 40 1017.5
20260503205910 75 116 1.7 1.7 0.00 0.00 0.00 38 1017.5
20260503205408 75 186 3.5 4.3 0.00 0.00 0.00 39 1017.6
20260503204904 75 205 4.3 4.3 0.00 0.00 0.00 41 1017.7
20260503204401 75 220 6.1 10.4 0.00 0.00 0.00 43 1017.8
20260503203858 75 98 1.7 1.7 0.00 0.00 0.00 44 1017.6
20260503203356 75 103 2.6 4.3 0.00 0.00 0.00 37 1017.5
20260503202852 75 214 4.3 6.1 0.00 0.00 0.00 38 1017.7
20260503202351 75 187 6.1 7.8 0.00 0.00 0.00 40 1017.8
20260503201849 75 203 1.7 2.6 0.00 0.00 0.00 40 1018.0
20260503201346 74 235 1.7 2.6 0.00 0.00 0.00 44 1018.2
20260503200843 75 201 3.5 4.3 0.00 0.00 0.00 39 1018.3
20260503200338 75 217 4.3 6.1 0.00 0.00 0.00 42 1018.3
20260503195836 75 97 1.7 1.7 0.00 0.00 0.00 39 1018.5
20260503195332 75 207 1.7 2.6 0.00 0.00 0.00 41 1018.8
20260503194830 74 125 2.6 2.6 0.00 0.00 0.00 46 1018.8
20260503194325 75 202 1.7 1.7 0.00 0.00 0.00 44 1018.9
20260503193823 74 186 3.5 4.3 0.00 0.00 0.00 44 1019.0
20260503193318 74 182 1.7 2.6 0.00 0.00 0.00 40 1019.2
20260503192815 74 20 4.3 6.1 0.00 0.00 0.00 40 1019.1
20260503192310 73 175 5.2 6.1 0.00 0.00 0.00 41 1019.2
20260503191806 74 229 4.3 4.3 0.00 0.00 0.00 41 1019.3
20260503191303 73 33 4.3 7.8 0.00 0.00 0.00 43 1019.5
20260503190800 73 338 3.5 4.3 0.00 0.00 0.00 43 1019.5
20260503190257 73 30 3.5 4.3 0.00 0.00 0.00 41 1019.7
20260503185754 74 149 1.7 2.6 0.00 0.00 0.00 45 1019.7
20260503185249 73 35 1.7 2.6 0.00 0.00 0.00 44 1019.6
20260503184745 75 79 3.5 6.1 0.00 0.00 0.00 43 1019.8
20260503184242 73 41 1.7 1.7 0.00 0.00 0.00 43 1019.7
20260503183737 73 50 1.7 1.7 0.00 0.00 0.00 41 1019.9
20260503183235 73 250 2.6 2.6 0.00 0.00 0.00 43 1020.1
20260503182733 73 248 5.2 6.1 0.00 0.00 0.00 40 1020.0
20260503182232 72 4 2.6 2.6 0.00 0.00 0.00 41 1020.1
20260503181728 72 226 3.5 6.1 0.00 0.00 0.00 46 1020.0
20260503181225 72 53 1.7 1.7 0.00 0.00 0.00 45 1020.1
20260503180721 72 37 0.0 1.7 0.00 0.00 0.00 46 1020.3
20260503180220 73 263 6.1 8.7 0.00 0.00 0.00 46 1020.3
20260503175716 74 179 2.6 2.6 0.00 0.00 0.00 42 1020.5
20260503175214 72 219 1.7 1.7 0.00 0.00 0.00 48 1020.4
20260503174710 71 203 2.6 2.6 0.00 0.00 0.00 49 1020.6
20260503174208 71 219 4.3 4.3 0.00 0.00 0.00 44 1020.6
20260503173708 71 246 3.5 4.3 0.00 0.00 0.00 41 1020.7
20260503173204 71 278 2.6 2.6 0.00 0.00 0.00 48 1020.8
20260503172701 71 182 1.7 2.6 0.00 0.00 0.00 47 1020.9
20260503172158 70 169 2.6 2.6 0.00 0.00 0.00 47 1021.0
20260503171654 70 190 4.3 6.1 0.00 0.00 0.00 46 1021.3
20260503171152 70 208 4.3 4.3 0.00 0.00 0.00 46 1021.1
20260503170649 70 231 2.6 2.6 0.00 0.00 0.00 46 1021.0
20260503170145 68 190 0.9 1.7 0.00 0.00 0.00 48 1021.1
20260503160107 67 199 4.3 4.3 0.00 0.00 0.00 47 1021.9